Wind_Speed
33 34 35 35 35 35 37 38 39 37 37 35 35 35 36 37 38 39 38 38 39 39 40 41 41 42 42 44 45 46 46 47 48 48 48 49 49 50 51 52 53 53 52 52
34 33 34 35 35 36 36 37 38 38 37 35 36 37 37 38 39 40 40 39 39 40 40 41 41 42 42 43 45 45 46 46 47 48 48 49 48 49 50 51 52 53 53 52
33 32 34 35 32 34 35 35 37 38 36 36 36 36 37 38 38 39 40 39 39 39 40 41 41 42 42 43 44 45 46 46 47 47 48 49 49 49 49 50 51 52 53 53
32 33 35 32 32 33 34 35 35 36 35 35 36 36 36 37 37 38 38 38 38 38 39 40 41 41 42 42 43 44 45 46 46 47 47 48 49 49 49 49 50 50 52 52
33 34 35 32 31 33 34 34 33 35 35 35 36 36 36 37 37 37 37 38 38 38 39 39 40 41 41 41 42 42 43 44 45 46 46 47 47 48 48 48 48 49 50 51
33 34 34 32 31 32 34 34 33 33 34 35 35 36 35 36 37 37 37 37 38 38 39 39 40 41 41 41 41 41 42 43 44 45 46 47 47 48 48 47 47 47 48 49
33 34 34 32 32 32 33 33 33 33 34 35 35 35 35 36 36 37 37 38 38 39 40 40 41 41 41 41 42 42 42 43 43 44 45 45 46 46 47 47 46 46 46 47
31 33 32 32 32 33 33 33 34 34 34 35 35 35 35 35 36 37 37 38 38 39 39 40 41 42 41 41 42 42 42 43 43 43 44 45 45 45 46 46 46 46 46 46
32 32 31 31 32 32 33 33 34 35 35 35 35 35 35 35 36 36 37 37 37 38 38 39 40 41 41 41 42 42 42 43 43 43 44 44 45 45 46 46 47 47 47 47
31 30 30 30 31 32 33 34 34 34 34 34 35 35 35 36 36 36 36 36 37 37 38 39 39 39 40 40 40 41 41 42 42 43 43 44 44 44 45 46 46 47 47 48
31 30 30 31 31 32 34 34 34 34 34 33 34 34 34 35 35 36 36 36 37 38 38 38 38 38 39 40 40 41 41 41 42 43 43 43 44 44 45 45 46 46 47 48
31 31 31 31 32 33 34 34 33 33 33 34 34 35 35 35 35 36 37 37 38 38 38 38 38 38 39 39 40 40 41 42 42 42 42 43 44 44 45 45 46 46 46 47
31 32 32 32 32 33 33 33 33 33 33 34 34 35 35 35 36 36 36 37 37 37 36 37 38 38 39 39 39 39 40 40 41 41 41 42 42 43 44 45 45 45 46 46
31 32 32 32 32 33 33 33 33 33 34 34 33 34 34 35 35 35 35 35 35 35 36 36 37 38 38 38 38 38 39 39 39 39 40 41 41 42 42 42 43 43 44 44
30 31 32 32 33 33 33 33 34 34 34 34 33 33 33 34 34 34 34 34 35 36 36 36 36 37 37 37 38 38 38 37 37 38 39 39 39 40 40 40 40 41 42 42
30 31 31 32 32 32 32 33 33 33 33 33 33 33 33 33 33 34 35 35 36 36 36 36 36 36 36 36 37 37 37 36 36 36 37 37 37 38 38 39 39 40 40 41
30 30 30 31 31 32 32 32 31 31 31 31 31 31 32 32 33 33 34 35 36 36 36 36 36 36 35 36 36 36 36 36 36 35 35 35 35 36 37 38 39 39 39 39
29 29 30 30 30 30 30 30 30 30 31 30 30 31 31 32 33 34 35 35 36 36 36 36 36 36 35 35 35 34 34 34 34 34 34 34 34 35 36 36 36 36 36 37
29 29 30 30 29 30 30 30 30 30 30 30 30 31 32 32 33 34 35 36 36 36 36 36 36 35 35 34 33 33 33 32 32 33 33 33 33 33 34 34 33 33 33 34
28 29 29 29 29 29 29 29 29 29 29 29 30 30 31 32 33 33 34 35 35 35 35 35 35 33 33 33 32 32 32 32 32 32 33 32 32 32 31 31 31 31 32 32
28 28 29 29 28 28 29 28 28 28 28 29 29 30 31 32 32 33 33 34 34 34 34 33 32 32 31 31 31 31 31 31 31 32 32 31 31 30 29 29 29 29 30 30
27 28 28 28 28 28 28 28 29 29 29 29 30 30 31 32 32 32 33 33 33 33 32 31 31 30 29 29 29 29 30 30 30 30 30 29 29 28 28 28 28 29 29 29
28 28 28 28 28 28 28 28 29 29 29 29 30 30 31 31 31 32 32 32 32 31 31 30 30 29 29 28 28 28 29 29 29 28 28 28 28 28 28 28 28 28 29 29
29 29 29 29 29 29 29 30 30 30 30 30 30 30 30 30 31 31 31 31 30 30 30 29 29 28 28 28 28 27 27 27 26 26 26 26 26 27 27 27 27 27 28 28
30 30 30 29 29 29 29 29 30 30 30 30 30 30 30 30 30 30 30 30 30 30 29 29 28 28 27 27 27 26 25 25 25 24 25 25 25 25 25 25 26 26 26 27
29 30 30 30 29 29 29 29 29 29 30 30 30 30 30 30 30 30 30 30 30 29 29 28 27 27 26 26 26 25 25 25 25 25 25 24 25 25 25 25 25 25 25 26
29 29 29 29 29 29 29 30 30 30 30 31 31 31 30 30 30 30 30 30 30 29 28 27 27 26 25 25 26 26 25 25 25 25 25 25 25 25 25 25 25 25 25 26
Wind_Direction
273 271 269 268 268 268 268 269 271 272 272 271 272 271 271 270 268 268 269 269 270 270 269 270 270 270 269 268 268 268 267 265 264 264 263 263 264 264 262 261 260 260 259 259
272 271 271 269 268 269 270 270 271 272 271 271 271 271 271 271 270 269 270 270 269 269 270 271 271 270 270 270 269 268 267 266 265 265 265 264 264 264 264 262 260 259 259 259
275 272 271 271 271 270 270 272 272 272 272 271 269 270 272 272 272 271 271 271 271 272 272 273 273 272 271 271 270 269 268 267 266 266 265 265 265 265 265 263 261 259 260 260
280 276 273 275 274 274 274 274 274 273 271 270 271 272 272 272 273 273 273 273 273 273 273 273 273 272 271 271 271 270 269 268 268 267 266 266 266 265 265 264 262 261 260 260
281 280 279 277 277 276 275 276 275 274 272 272 273 273 273 273 274 274 274 273 272 273 274 274 274 273 272 272 272 271 271 270 269 268 267 267 267 265 264 264 264 262 261 261
283 282 282 283 279 277 276 276 276 275 274 273 273 273 273 273 274 274 273 274 273 273 274 275 275 274 274 274 273 272 272 271 270 269 269 268 267 265 264 264 264 264 263 261
284 283 282 284 282 280 279 279 277 276 276 275 274 275 275 274 274 274 275 274 274 275 275 276 275 275 275 275 274 273 272 272 271 271 270 269 268 266 265 265 265 264 264 263
285 284 286 285 283 281 281 280 279 277 277 276 275 276 275 276 276 276 275 275 275 276 277 277 276 276 276 276 274 273 273 272 272 272 271 269 268 267 266 265 265 265 265 264
286 287 287 284 282 280 280 280 280 278 277 276 276 276 276 276 277 277 276 275 276 276 276 277 277 277 278 277 276 274 273 273 273 273 271 269 268 267 266 266 266 266 267 266
286 287 285 283 281 280 280 280 280 279 279 278 277 277 277 278 277 278 278 277 277 277 277 278 278 279 279 279 278 276 274 274 273 273 271 270 269 268 267 266 267 268 267 267
287 286 284 283 283 281 281 281 282 281 280 279 278 278 278 278 278 278 279 279 279 279 279 279 280 279 279 279 279 277 275 274 274 273 271 270 269 268 267 267 268 268 268 268
287 287 287 285 284 283 283 283 282 281 281 281 279 278 278 279 280 280 280 279 280 280 280 280 280 281 281 281 280 279 277 275 274 273 271 271 270 269 268 268 268 269 269 269
286 286 287 288 288 287 285 284 282 281 281 281 281 280 279 280 281 281 281 281 282 282 281 281 282 282 283 283 281 280 279 277 274 273 272 272 271 270 269 269 269 269 270 270
288 288 288 289 289 288 286 284 283 282 281 281 281 281 280 281 282 282 282 283 284 284 284 284 284 284 285 284 282 281 280 279 277 275 274 273 272 271 270 270 269 270 270 271
289 290 290 290 290 288 287 285 283 282 282 281 281 282 282 282 282 283 283 284 285 286 286 286 286 285 285 284 283 282 282 280 278 277 276 274 273 272 271 271 270 271 271 271
291 292 292 293 293 291 289 287 285 283 282 281 281 282 283 283 283 283 283 285 286 286 286 287 287 287 286 284 284 283 283 281 279 278 277 276 274 273 273 272 272 272 272 272
293 293 294 295 295 293 290 288 286 284 284 283 283 282 283 283 284 284 285 286 287 287 287 287 287 287 286 285 285 285 284 282 281 280 279 278 276 274 274 273 273 273 274 273
293 294 295 296 295 294 292 291 289 287 286 285 285 284 284 284 285 285 287 288 288 288 288 287 287 286 286 286 286 285 285 284 283 282 281 280 278 276 275 274 274 274 274 273
292 294 294 295 295 295 295 293 291 289 288 287 286 286 285 285 286 287 288 288 288 288 288 288 288 287 286 286 286 285 284 284 283 283 283 282 281 279 277 275 274 273 272 272
293 295 295 295 296 296 297 296 294 292 291 290 288 288 287 287 288 289 290 290 290 289 289 289 288 287 286 284 283 283 284 284 284 284 283 283 283 282 280 277 276 274 273 273
294 296 297 298 298 298 298 297 296 295 293 292 291 290 290 290 291 292 293 293 292 291 290 289 288 287 286 285 284 284 284 284 284 284 284 284 283 282 280 279 278 276 275 274
294 297 298 298 298 298 298 298 298 296 295 293 292 291 291 292 293 294 293 293 292 292 291 290 289 287 286 286 286 287 286 285 285 285 285 284 283 282 281 280 279 278 277 276
294 296 297 298 298 298 298 298 298 298 296 295 294 293 292 292 293 295 295 295 294 292 291 291 289 287 286 286 287 288 288 287 286 285 285 284 284 284 284 283 281 280 279 278
293 295 296 296 296 296 297 297 297 297 297 296 296 295 294 294 294 294 295 295 294 293 292 291 289 287 287 287 287 288 289 289 287 285 284 284 285 285 286 285 284 283 282 281
292 294 295 295 295 296 296 296 296 297 297 297 297 297 296 295 294 294 294 294 294 293 292 290 288 287 287 286 287 287 287 287 287 287 287 286 286 286 287 287 286 285 284 284
293 294 294 293 294 295 295 296 297 297 298 298 297 297 297 296 295 295 294 294 294 293 290 288 287 287 286 286 286 285 286 287 287 288 288 288 287 287 287 288 288 287 286 286
293 294 293 293 293 294 295 296 297 297 297 297 297 297 297 296 296 296 295 295 294 292 289 287 286 286 285 285 285 285 285 286 287 287 287 287 287 288 288 288 288 288 287 286
Height
5582 5581 5581 5581 5581 5580 5579 5579 5578 5579 5579 5580 5579 5577 5576 5575 5575 5574 5574 5574 5573 5573 5572 5571 5570 5569 5568 5568 5567 5566 5565 5565 5565 5564 5565 5565 5565 5565 5565 5566 5567 5568 5570 5571
5573 5572 5570 5570 5571 5570 5569 5568 5568 5567 5568 5569 5567 5566 5565 5564 5563 5562 5562 5561 5561 5561 5560 5559 5558 5557 5555 5554 5553 5552 5552 5551 5551 5551 5550 5551 5551 5551 5550 5551 5552 5553 5555 5556
5562 5562 5560 5560 5562 5561 5559 5559 5557 5556 5558 5556 5555 5554 5553 5552 5552 5551 5550 5549 5549 5548 5547 5546 5545 5544 5542 5541 5540 5539 5538 5537 5537 5537 5536 5536 5536 5536 5536 5536 5537 5538 5540 5541
5551 5551 5549 5554 5552 5550 5548 5548 5547 5545 5545 5545 5544 5543 5542 5540 5539 5539 5538 5537 5537 5536 5535 5533 5532 5530 5529 5528 5526 5525 5524 5524 5523 5523 5522 5522 5521 5521 5521 5522 5523 5524 5525 5526
5541 5539 5539 5543 5542 5539 5537 5537 5537 5535 5534 5533 5532 5531 5531 5529 5528 5528 5527 5526 5525 5524 5522 5521 5519 5518 5516 5515 5513 5512 5511 5510 5509 5509 5508 5508 5507 5507 5507 5508 5508 5509 5510 5511
5532 5529 5529 5533 5531 5527 5526 5526 5526 5524 5523 5521 5520 5520 5521 5519 5517 5516 5515 5514 5513 5511 5510 5508 5506 5505 5504 5502 5500 5499 5498 5497 5496 5495 5494 5494 5494 5493 5493 5494 5494 5494 5495 5496
5523 5520 5520 5523 5520 5517 5517 5517 5515 5513 5511 5510 5509 5509 5508 5507 5505 5504 5503 5502 5501 5500 5498 5496 5494 5492 5491 5489 5488 5486 5485 5484 5482 5481 5481 5480 5479 5479 5479 5480 5480 5480 5480 5481
5514 5511 5514 5512 5509 5508 5506 5504 5503 5501 5500 5499 5498 5497 5496 5495 5494 5492 5491 5490 5489 5487 5486 5484 5482 5480 5478 5476 5475 5473 5472 5470 5469 5468 5467 5466 5466 5465 5465 5465 5466 5466 5466 5466
5506 5506 5504 5501 5499 5497 5495 5493 5492 5490 5489 5488 5487 5486 5485 5484 5482 5481 5480 5478 5477 5475 5473 5471 5469 5467 5465 5463 5461 5460 5458 5457 5456 5454 5453 5452 5452 5451 5451 5451 5451 5451 5452 5452
5496 5496 5494 5491 5488 5487 5485 5482 5481 5480 5478 5477 5476 5475 5474 5473 5471 5470 5468 5467 5465 5463 5461 5459 5457 5455 5452 5450 5448 5447 5445 5444 5442 5441 5440 5439 5438 5437 5437 5437 5437 5437 5437 5437
5487 5486 5483 5481 5479 5476 5474 5472 5470 5469 5468 5467 5465 5464 5463 5462 5460 5459 5457 5455 5453 5451 5449 5447 5445 5443 5440 5438 5436 5434 5432 5431 5429 5428 5427 5425 5425 5424 5423 5423 5422 5422 5422 5422
5478 5476 5473 5471 5469 5466 5464 5462 5460 5459 5457 5456 5455 5454 5452 5451 5449 5447 5445 5443 5441 5439 5437 5435 5433 5431 5428 5426 5423 5421 5419 5418 5416 5414 5413 5412 5411 5410 5409 5409 5408 5407 5407 5407
5468 5465 5463 5461 5458 5456 5453 5452 5450 5448 5447 5446 5444 5443 5441 5440 5438 5436 5434 5432 5430 5428 5425 5423 5421 5419 5416 5413 5411 5409 5406 5404 5402 5401 5400 5398 5397 5397 5396 5395 5394 5393 5392 5392
5458 5456 5453 5451 5448 5445 5443 5441 5439 5438 5436 5435 5434 5432 5430 5429 5427 5425 5423 5421 5419 5416 5414 5412 5409 5407 5404 5401 5399 5396 5394 5391 5389 5388 5386 5385 5384 5382 5382 5381 5380 5379 5378 5377
5449 5446 5443 5441 5438 5436 5433 5431 5429 5428 5426 5424 5423 5421 5419 5418 5416 5414 5412 5410 5408 5405 5403 5400 5397 5395 5392 5389 5386 5384 5381 5379 5377 5375 5373 5371 5370 5369 5368 5367 5366 5366 5365 5364
5440 5437 5434 5431 5428 5426 5423 5421 5419 5417 5416 5414 5412 5411 5409 5407 5405 5404 5401 5399 5397 5394 5391 5389 5386 5383 5380 5378 5375 5372 5369 5367 5365 5363 5360 5359 5357 5356 5355 5354 5353 5352 5351 5351
5431 5428 5425 5422 5419 5416 5414 5411 5409 5407 5405 5404 5402 5400 5399 5397 5395 5393 5391 5388 5385 5383 5380 5377 5375 5372 5369 5366 5363 5361 5358 5355 5353 5350 5348 5347 5345 5344 5343 5341 5340 5339 5338 5337
5422 5419 5416 5413 5410 5407 5404 5402 5399 5397 5396 5394 5392 5390 5389 5387 5385 5382 5380 5377 5374 5371 5369 5366 5363 5360 5358 5355 5352 5350 5347 5344 5342 5339 5337 5335 5334 5332 5331 5329 5328 5327 5326 5325
5413 5410 5407 5404 5401 5399 5396 5393 5390 5388 5386 5384 5382 5380 5378 5376 5374 5371 5369 5366 5363 5360 5358 5355 5352 5349 5346 5344 5341 5339 5336 5334 5331 5329 5327 5325 5323 5321 5319 5318 5316 5315 5314 5313
5404 5401 5398 5396 5393 5390 5387 5384 5381 5379 5377 5374 5372 5370 5368 5366 5363 5361 5358 5355 5352 5349 5346 5343 5341 5338 5335 5333 5331 5328 5326 5324 5321 5319 5317 5315 5312 5310 5308 5307 5305 5304 5303 5302
5395 5393 5390 5387 5384 5381 5378 5376 5373 5370 5368 5365 5363 5361 5358 5356 5353 5350 5347 5345 5341 5338 5335 5333 5330 5327 5325 5323 5320 5318 5316 5314 5311 5309 5307 5304 5302 5300 5298 5297 5295 5294 5293 5292
5387 5384 5381 5378 5375 5373 5370 5367 5364 5362 5359 5356 5354 5351 5348 5346 5343 5340 5337 5334 5331 5328 5325 5322 5320 5317 5315 5313 5311 5309 5306 5304 5302 5299 5297 5295 5293 5291 5289 5287 5286 5285 5283 5282
5378 5375 5373 5370 5367 5364 5361 5359 5356 5353 5350 5347 5344 5341 5339 5336 5333 5330 5327 5324 5321 5318 5315 5313 5310 5308 5306 5304 5302 5299 5297 5295 5292 5290 5288 5286 5284 5282 5280 5278 5276 5275 5274 5272
5369 5366 5364 5361 5358 5355 5353 5350 5347 5344 5341 5338 5335 5332 5329 5326 5323 5320 5317 5314 5311 5309 5306 5303 5301 5298 5296 5294 5293 5290 5288 5286 5283 5281 5279 5277 5275 5273 5271 5269 5268 5266 5264 5263
5359 5357 5354 5352 5349 5346 5344 5341 5338 5335 5332 5329 5326 5323 5320 5317 5314 5311 5308 5305 5302 5299 5297 5294 5292 5289 5287 5285 5283 5281 5279 5277 5275 5273 5271 5269 5267 5265 5263 5261 5259 5257 5256 5254
5349 5347 5345 5342 5340 5337 5335 5332 5329 5326 5323 5320 5316 5313 5310 5307 5304 5301 5298 5295 5292 5290 5287 5285 5283 5280 5278 5276 5275 5273 5271 5269 5267 5265 5263 5261 5259 5257 5255 5253 5251 5249 5247 5245
5340 5338 5335 5333 5330 5328 5325 5322 5319 5316 5313 5310 5307 5304 5301 5298 5295 5292 5289 5286 5283 5280 5277 5275 5273 5271 5270 5268 5266 5264 5262 5260 5258 5256 5254 5253 5251 5249 5247 5245 5243 5241 5239 5237